EN

Hourly Weather Parla

Today, 8 March, Monday

Time Temperature Precipitation Wind Pressure Humidity
00:00 +8°C° 0 mm 1 mps 704 mmHg 88%
01:00 +7°C° 0.1 mm 1 mps 704 mmHg 89%
02:00 +7°C° 0.1 mm 1 mps 704 mmHg 90%
03:00 +7°C° 0.1 mm 1 mps 704 mmHg 91%
04:00 +6°C° 0 mm 1 mps 703 mmHg 91%
05:00 +6°C° 0 mm 1 mps 703 mmHg 91%
06:00 +5°C° 0 mm 0 mps 704 mmHg 92%
07:00 +7°C° 0.2 mm 1 mps 704 mmHg 87%
08:00 +8°C° 0.2 mm 1 mps 704 mmHg 83%
09:00 +8°C° 0.2 mm 2 mps 705 mmHg 78%
10:00 +10°C° 0.3 mm 2 mps 704 mmHg 71%
11:00 +12°C° 0.3 mm 1 mps 704 mmHg 64%
12:00 +13°C° 0.3 mm 1 mps 704 mmHg 57%
13:00 +14°C° 0.1 mm 1 mps 704 mmHg 53%
14:00 +14°C° 0.1 mm 1 mps 703 mmHg 48%
15:00 +15°C° 0.1 mm 1 mps 703 mmHg 43%
16:00 +14°C° 0.2 mm 2 mps 703 mmHg 48%
17:00 +12°C° 0.2 mm 3 mps 703 mmHg 52%
18:00 +11°C° 0.2 mm 4 mps 703 mmHg 57%
19:00 +11°C° 0.1 mm 4 mps 704 mmHg 60%
20:00 +10°C° 0.1 mm 4 mps 705 mmHg 63%
21:00 +8°C° 0.1 mm 4 mps 705 mmHg 66%
22:00 +8°C° 0 mm 5 mps 706 mmHg 67%
23:00 +7°C° 0 mm 5 mps 706 mmHg 68%

Tomorrow, 9 March, Tuesday

Time Temperature Precipitation Wind Pressure Humidity
00:00 +7°C° 0 mm 5 mps 706 mmHg 69%
01:00 +6°C° 0 mm 5 mps 706 mmHg 69%
02:00 +6°C° 0 mm 5 mps 706 mmHg 69%
03:00 +6°C° 0 mm 5 mps 706 mmHg 69%
04:00 +5°C° 0 mm 5 mps 706 mmHg 67%
05:00 +5°C° 0 mm 5 mps 706 mmHg 65%
06:00 +5°C° 0 mm 5 mps 706 mmHg 63%
07:00 +5°C° 0 mm 5 mps 707 mmHg 61%
08:00 +6°C° 0 mm 4 mps 707 mmHg 60%
09:00 +6°C° 0 mm 4 mps 707 mmHg 58%
10:00 +7°C° 0 mm 4 mps 707 mmHg 55%
11:00 +10°C° 0 mm 3 mps 707 mmHg 51%
12:00 +12°C° 0 mm 2 mps 707 mmHg 48%
13:00 +13°C° 0 mm 2 mps 706 mmHg 45%
14:00 +13°C° 0 mm 1 mps 706 mmHg 43%
15:00 +14°C° 0 mm 1 mps 706 mmHg 41%
16:00 +13°C° 0 mm 1 mps 706 mmHg 44%
17:00 +13°C° 0 mm 1 mps 706 mmHg 48%
18:00 +12°C° 0 mm 2 mps 706 mmHg 51%
19:00 +10°C° 0 mm 2 mps 706 mmHg 52%
20:00 +9°C° 0 mm 2 mps 707 mmHg 54%
21:00 +8°C° 0 mm 3 mps 708 mmHg 55%
22:00 +8°C° 0 mm 2 mps 708 mmHg 56%
23:00 +7°C° 0 mm 2 mps 708 mmHg 58%

Day after tomorrow, 10 March, Wednesday

Time Temperature Precipitation Wind Pressure Humidity
00:00 +7°C° 0 mm 2 mps 708 mmHg 60%
01:00 +6°C° 0 mm 2 mps 708 mmHg 60%
02:00 +6°C° 0 mm 2 mps 708 mmHg 61%
03:00 +6°C° 0 mm 1 mps 708 mmHg 62%
04:00 +6°C° 0 mm 1 mps 708 mmHg 63%
05:00 +5°C° 0 mm 1 mps 708 mmHg 63%
06:00 +5°C° 0 mm 1 mps 709 mmHg 64%
07:00 +6°C° 0 mm 1 mps 709 mmHg 58%
08:00 +8°C° 0 mm 1 mps 710 mmHg 52%
09:00 +9°C° 0 mm 1 mps 710 mmHg 47%
10:00 +10°C° 0 mm 1 mps 710 mmHg 42%
11:00 +12°C° 0 mm 1 mps 710 mmHg 38%
12:00 +13°C° 0 mm 1 mps 710 mmHg 34%
13:00 +14°C° 0 mm 1 mps 710 mmHg 32%
14:00 +15°C° 0 mm 2 mps 710 mmHg 30%
15:00 +15°C° 0 mm 2 mps 710 mmHg 28%
16:00 +15°C° 0 mm 2 mps 710 mmHg 33%
17:00 +14°C° 0 mm 2 mps 710 mmHg 38%
18:00 +13°C° 0 mm 2 mps 710 mmHg 43%
19:00 +12°C° 0 mm 2 mps 710 mmHg 46%
20:00 +10°C° 0 mm 2 mps 711 mmHg 50%
21:00 +9°C° 0 mm 2 mps 711 mmHg 54%
22:00 +9°C° 0 mm 2 mps 711 mmHg 57%
23:00 +8°C° 0 mm 2 mps 712 mmHg 60%

11 March, Thursday

Time Temperature Precipitation Wind Pressure Humidity
00:00 +8°C° 0 mm 2 mps 712 mmHg 63%
01:00 +8°C° 0 mm 2 mps 712 mmHg 65%
02:00 +7°C° 0 mm 2 mps 711 mmHg 67%
03:00 +7°C° 0 mm 2 mps 711 mmHg 68%
04:00 +7°C° 0 mm 2 mps 711 mmHg 70%
05:00 +7°C° 0 mm 2 mps 711 mmHg 71%
06:00 +6°C° 0 mm 2 mps 711 mmHg 73%
07:00 +8°C° 0 mm 2 mps 712 mmHg 68%
08:00 +9°C° 0 mm 2 mps 712 mmHg 63%
09:00 +10°C° 0 mm 3 mps 713 mmHg 59%
10:00 +11°C° 0 mm 3 mps 712 mmHg 55%
11:00 +13°C° 0 mm 4 mps 712 mmHg 51%
12:00 +14°C° 0 mm 5 mps 712 mmHg 47%
13:00 +15°C° 0 mm 5 mps 712 mmHg 48%
14:00 +15°C° 0 mm 5 mps 711 mmHg 48%
15:00 +16°C° 0 mm 5 mps 711 mmHg 48%
16:00 +15°C° 0 mm 5 mps 711 mmHg 53%
17:00 +14°C° 0 mm 5 mps 711 mmHg 58%
18:00 +13°C° 0 mm 5 mps 711 mmHg 64%
19:00 +12°C° 0 mm 4 mps 711 mmHg 68%
20:00 +12°C° 0 mm 4 mps 711 mmHg 72%
21:00 +11°C° 0 mm 4 mps 712 mmHg 76%
22:00 +10°C° 0 mm 4 mps 712 mmHg 79%
23:00 +10°C° 0 mm 3 mps 711 mmHg 81%

12 March, Friday

Time Temperature Precipitation Wind Pressure Humidity
00:00 +9°C° 0 mm 3 mps 711 mmHg 84%
01:00 +9°C° 0 mm 3 mps 711 mmHg 86%
02:00 +8°C° 0 mm 2 mps 710 mmHg 87%
03:00 +8°C° 0 mm 2 mps 710 mmHg 89%
04:00 +8°C° 0 mm 2 mps 710 mmHg 89%
05:00 +8°C° 0 mm 2 mps 710 mmHg 89%
06:00 +7°C° 0 mm 2 mps 710 mmHg 89%
07:00 +9°C° 0 mm 2 mps 710 mmHg 84%
08:00 +10°C° 0 mm 3 mps 710 mmHg 80%
09:00 +11°C° 0 mm 3 mps 711 mmHg 75%
10:00 +12°C° 0.1 mm 3 mps 711 mmHg 69%
11:00 +13°C° 0.1 mm 4 mps 711 mmHg 64%
12:00 +14°C° 0.1 mm 4 mps 711 mmHg 59%
13:00 +14°C° 0.1 mm 5 mps 710 mmHg 52%
14:00 +14°C° 0.1 mm 6 mps 710 mmHg 45%
15:00 +14°C° 0.1 mm 6 mps 709 mmHg 38%
16:00 +13°C° 0 mm 6 mps 710 mmHg 39%
17:00 +12°C° 0 mm 5 mps 710 mmHg 41%
18:00 +12°C° 0 mm 5 mps 710 mmHg 42%
19:00 +10°C° 0 mm 4 mps 710 mmHg 46%
20:00 +8°C° 0 mm 4 mps 711 mmHg 49%
21:00 +8°C° 0 mm 3 mps 711 mmHg 53%
22:00 +7°C° 0 mm 2 mps 711 mmHg 56%
23:00 +7°C° 0 mm 2 mps 712 mmHg 59%

13 March, Saturday

Time Temperature Precipitation Wind Pressure Humidity
00:00 +7°C° 0 mm 1 mps 712 mmHg 62%
01:00 +7°C° 0 mm 1 mps 712 mmHg 63%
02:00 +6°C° 0 mm 1 mps 711 mmHg 64%
03:00 +6°C° 0 mm 1 mps 711 mmHg 66%
04:00 +5°C° 0 mm 1 mps 711 mmHg 67%
05:00 +4°C° 0 mm 0 mps 712 mmHg 69%
06:00 +4°C° 0 mm 0 mps 712 mmHg 70%
07:00 +5°C° 0 mm 0 mps 712 mmHg 64%
08:00 +7°C° 0 mm 0 mps 712 mmHg 58%
09:00 +9°C° 0 mm 0 mps 713 mmHg 51%
10:00 +11°C° 0 mm 1 mps 713 mmHg 47%
11:00 +12°C° 0 mm 1 mps 712 mmHg 43%
12:00 +14°C° 0 mm 1 mps 712 mmHg 38%
13:00 +14°C° 0 mm 2 mps 712 mmHg 37%
14:00 +15°C° 0 mm 2 mps 711 mmHg 35%
15:00 +16°C° 0 mm 3 mps 711 mmHg 33%
16:00 +14°C° 0 mm 3 mps 711 mmHg 37%
17:00 +14°C° 0 mm 3 mps 711 mmHg 42%
18:00 +14°C° 0 mm 2 mps 711 mmHg 46%
19:00 +13°C° 0 mm 2 mps 711 mmHg 49%
20:00 +12°C° 0 mm 2 mps 712 mmHg 52%
21:00 +10°C° 0 mm 2 mps 712 mmHg 55%
22:00 +9°C° 0 mm 2 mps 712 mmHg 56%
23:00 +8°C° 0 mm 2 mps 712 mmHg 58%
Show more

We Need Your Consent

Meteoprog and our Service Providers may store and access personal data such as cookies, device identifiers or other similar technologies on your device and process such data to personalise content and ads, as well as provide social media features and to analyse the traffic.

  • Store and/or access information on your device

    Cookies, device identifiers or other information can be stored or accessed on your device for the purposes indicated above.

  • Personalised ads and content, ad and content measurement, audience insights, and products development

    Ads and content can be personalised based on a profile. More data can be added to better personalise ads and content. Ad and content performance can be measured. Insights about the audience who saw the ads and content can be derived. Such data can be used to develop or improve user’s experience, systems and software.

By clicking ‘I Agree’ you will allow the use of indicated cookies, device identifiers, web beacons or other similar technologies. Your settings can be changed in the browser on your device.

For certain purposes, legitimate interests may be relied on, rather than consent. You can read more about this in our Privacy and Cookie Policy.